Other Surface Observations
Issued by NWS Charleston, SC

Home | Current Version | Previous Version | Text Only | Print | Product List | Glossary On
Versions: 1 2 3 4 5 6 7 8 9 10 11 12 13 14 15 16 17 18 19 20 21 22 23 24 25 26 27 28 29 30 31 32 33 34 35 36 37 38 39 40 41 42 43 44 45 46 47 48 49 50
000
SXUS52 KCHS 231912
OSOCHS

Marine Observations
National Weather Service Charleston SC
300 PM EDT WED MAY 23 2018

...Downtown Charleston and Harbor...

CITY           SKY/WX    TMP DP  RH WIND       PRES   REMARKS
Waterfront Prk   N/A     80  71  74 S12       29.92F

...Lake Moultrie...

CITY           SKY/WX    TMP DP  RH WIND       PRES   REMARKS
Pinopolis        N/A     77  72  83 N10       30.01F

...Lake and Supplemental Coastal Observations...

STATION/POSITION TIME  TEMP    WIND        PRES    WAVE   SWELL
                       AIR SEA DIR/SP/G            HT/PER HT/PER/DIR
                 (UTC) (F)     (DEG/KT/KT) (MB)    (FT/S) (FT/S/D)
Fort Pulaski     1842   81 78  170/  7/ 10 1019.0F
Sapelo Island    1800   85     160/ 12     1019.0
Winyah Bay       1745   80     200/  6     1019.0
Lake Murray      NOT AVBL
ACE Basin NERRS  NOT AVBL


...C-MAN and Buoy Observations...

STATION/POSITION TIME  TEMP    WIND        PRES    WAVE   SWELL
                       AIR SEA DIR/SP/G            HT/PER HT/PER/DIR
                 (UTC) (F)     (DEG/KT/KT) (MB)    (FT/S) (FT/S/D)
Buoy 41004       1850      76  220/  8/ 10 1019.2F   3/ 8   3/140/ 8
Buoy 41008       1850   76 77  170/ 12/ 16 1018.5F   3/ 7   2/130/ 7
Folly Beach CMAN 1900   79     190/ 14/ 16 1019.3F
Pritchards Islan NOT AVBL
Capers NS Buoy   1808   77 77  220/ 16/ 19 1019.9F
Fripp NS Buoy    1808   77 79  200/ 10/ 16 1018.9F
5E St. Marys GA  1900      78                N/A     3/ 8


STATION/POSITION TIME  TEMP    WIND        PRES    WAVE   SWELL
                       AIR SEA DIR/SP/G            HT/PER HT/PER/DIR
                 (UTC) (F)     (DEG/KT/KT) (MB)    (FT/S) (FT/S/D)
Frying Pan Buoy  1900   76 76  210/ 16/ 19 1018.9
Buoy 41025       1900   76 74  230/ 17/ 19 1017.7
Cape Lookout NC  1900          210/ 16/ 20 1017.9F
Buoy 41002       1850      78  220/  8/ 12 1020.7F   3/ 8   3/140/ 8
Buoy 41010       1900   78 80  120/  6/ 10 1020.2
St Augustine FL  1900   77 80  120/ 12/ 13 1019.2F

$$




USA.gov is the U.S. government's official web portal to all federal, state and local government web resources and services.